Regional Weather Roundup
Issued by NWS Northern Indiana

Home | Current Version | Previous Version | Graphics & Text | Print | Product List | Glossary On
Versions: 1 2 3 4 5 6 7 8 9 10 11 12 13 14 15 16 17 18 19 20 21 22 23 24 25 26 27 28 29 30 31 32 33 34 35 36 37 38 39 40 41 42 43 44 45 46 47 48 49 50
000
ASUS43 KIWX 270310
RWRIWX

KIWX WEATHER ROUNDUP
NATIONAL WEATHER SERVICE NORTHERN INDIANA
1100 PM EDT THU MAY 26 2016

NOTE: "FAIR" INDICATES FEW OR NO CLOUDS BELOW 12,000 FEET WITH NO
SIGNIFICANT WEATHER AND/OR OBSTRUCTIONS TO VISIBILITY.

* THESE STATIONS ARE NOT UNDER NWS QUALITY CONTROL. THEY ALSO MAY NOT
  REPORT WEATHER SUCH AS PRECIPITATION OR FOG.

INZ001>027-270400-
NORTHERN INDIANA

CITY           SKY/WX    TMP DP  RH WIND       PRES   REMARKS
GARY*          CLOUDY    79  72  78 VRB5      29.91R
VALPARAISO     CLOUDY    73  66  78 S7        29.93S
MICHIGAN CITY* CLOUDY    73  64  73 S5        29.93F
LAPORTE*       CLOUDY    75  67  75 S6        29.94S
KNOX*          CLOUDY    72  57  60 S7        29.94S
SOUTH BEND     CLOUDY    71  62  73 SW7       29.95R
GOSHEN         CLOUDY    69  58  67 SW6       29.96R
MONTICELLO*    PTCLDY    71  62  74 S5        29.97R
LOGANSPORT*    PTCLDY    70  61  73 SW8       29.98S
ROCHESTER*     CLEAR     73  64  73 SW6       29.97S
WARSAW*        CLOUDY    70  59  68 CALM      29.97R
ANGOLA*          N/A     70  63  78 SW3       29.96R
FORT WAYNE     CLOUDY    72  60  66 SW13      29.98R
HUNTINGTON*    CLOUDY   N/A N/A N/A SW6       29.98R
PERU/GRISSOM   PTCLDY    70  65  84 S9        29.97R
MARION*        CLOUDY    69  62  77 SW9       29.99S

$$
INZ028>050-270400-
CENTRAL INDIANA

CITY           SKY/WX    TMP DP  RH WIND       PRES   REMARKS
LAFAYETTE      CLOUDY    69  63  81 SW5       29.97R
KOKOMO*        PTCLDY    70  61  73 SW9       29.98S
MUNCIE*        PTCLDY    71  62  73 SW7       30.00R
INDIANAPOLIS   MOCLDY    67  63  87 S6        29.98R

$$
MIZ043>046-050>051-056>058-064>065-071>073-077>080-270400-
SOUTHWEST LOWER MICHIGAN

CITY           SKY/WX    TMP DP  RH WIND       PRES   REMARKS
BATTLE CREEK   MOCLDY    71  60  68 W6        29.96R
BENTON HARBOR  CLOUDY    68  63  84 CALM      29.93R
COLDWATER*     PTCLDY    67  58  72 CALM      29.96R
HILLSDALE*     CLOUDY    73  55  53 CALM      29.97R
HOLLAND        CLEAR     69  62  78 CALM      29.93R
GRAND RAPIDS   PTCLDY    71  62  73 W7        29.93R
KALAMAZOO      PTCLDY    72  60  66 CALM      29.95R
STURGIS*       PTCLDY    70  60  70 CALM      29.95R
THREE RIVERS*  FAIR      74  60  61 W3        29.96R

$$
OHZ001>008-015>018-024>025-270400-
NORTHWEST OHIO

CITY           SKY/WX    TMP DP  RH WIND       PRES   REMARKS
WAUSEON*         N/A     73  73 100 SW6       29.95R
DEFIANCE       PTCLDY    75  61  61 SW7       29.96R
FINDLAY        CLEAR     74  64  71 S10       29.96R
TOLEDO EXPRESS PTCLDY    75  65  70 SW6       29.95R
TOLEDO METCALF CLEAR     75  65  70 S6        29.96R
LIMA           PTCLDY    71  63  75 S10       29.99R

$$
AND FOR LAKE MICHIGAN COASTAL AND OPEN LAKE BUOY OBSERVATIONS

STATION/POSITION TEMP    WIND        PRES    VSBY  WAVE
                 AIR SEA DIR/SP/G                  HT/PER
                 (F)     (DEG/KT/KT) (MB)    (MI)  (FT/S)
CALUMET HARBOR                       1011.8R
MICHIGAN CITY     78     150/  9/ 10   N/A
BURNS HARBOR      78     180/  8/ 13 1013.2R
SAINT JOSEPH      74      CALM  /  3 1014.2R
SOUTH LAKE BUOY   57 50  150/  8/  8 1012.5R         0
4 MI NW BRIDGMAN  69 64  150/  6/  6   N/A           0
MICHIGAN CITY     69 61  170/  6/  8   N/A           0

$$
&&




USA.gov is the U.S. government's official web portal to all federal, state and local government web resources and services.